Location: B�hl
(48.6968°N, 8.1352°E)
Time: 00:12:42
(UTC+00:00)

Meteor 2-20 Rocket - Pass Details

Date: 08 March 2021
Orbit: 941 x 958 km, 82.5° (Epoch: 20 April)

Event Time Altitude Azimuth Distance (km) Brightness Sun altitude
Rises 19:24:04 0° 350° (N) 3,626 7.9 -20.7°
Reaches altitude 10° 19:26:34 10° 350° (N) 2,679 7.1 -21.1°
Maximum altitude 19:32:43 88° 78° (ENE) 957 4.4 -22.0°
Enters shadow 19:37:09 20° 171° (S) 2,048 5.9 -22.7°
